Find Starlink 31805

NORAD ID: 59745 Int'l Des: 2024-090 Owner: SPXS Country: US Constellation: starlink operational
LEOCIRCULAR

实时位置

正在加载3D地球...

关于 Starlink 31805

正在加载描述...

即将过境

Passes for default location (London). Set your location on the main map for personalized predictions.

高度历史

Loading altitude history...

两行轨道根数

1 59745U 24090R 26124.59080158 .00002245 00000-0 91096-4 0 9998
2 59745 43.0018 227.4381 0001822 270.6666 89.3976 15.27573410111999
Epoch: May 4, 2026 • Age: 11 hours

当前状态

高度 487.4 km
速度 7.63 km/s
星下点 42.77°N, 77.48°E
发射日期 May 13, 2024
运行时间 1.9 years
类型 internet

技术详情

分类 Payload
质量 730.00 kg
干质量 700.00 kg
总质量 730.00 kg
长度 0.30 m
直径 4.10 m
跨度 29.00 m
形状 Box + pan
制造商 SPXS
平台类型 Starlink V2M
阶段状态 In Orbit
所有者/国家 SPXS/US

Most Searched